Home > Weather > Ettelbruck > Past weeks

Flag for Luxembourg Past Weather in Ettelbruck, Luxembourg — Yesterday and Last 2 Weeks

Now
72 °F

Clear.


Feels Like: 76 °F
Forecast: 64 / 89 °F
Wind: 1 mph from East

Location: Luxembourg / Luxembourg

Current Time: Aug 26, 2016 at 5:30:52 AM

Latest Report: Aug 26, 2016 at 4:00 AM


Visibility: 28 mi

Pressure: 29.98 "Hg

Humidity: 63%

Dew Point: 59 °F

Location of EttelbruckLocation

Past Weather in Ettelbruck — Graph

°F

Ettelbruck Temperature Yesterday

Maximum temperature yesterday: 89 °F (at 5:00 PM)
Minimum temperature yesterday: 64 °F (at 7:00 AM)
Average temperature yesterday: 77 °F

High & Low Weather Summary for the Past Weeks

 TemperatureHumidityPressure
High89 °F (Aug 25, 5:00 PM)97% (Aug 19, 10:00 AM)30.36 "Hg (Aug 19, 10:00 AM)
Low43 °F (Aug 11, 6:00 AM)28% (Aug 24, 5:00 PM)29.78 "Hg (Aug 18, 4:00 PM)
Average66 °F69%30.09 "Hg
* Reported Aug 11 4:00 AM — Aug 26 4:00 AM, Ettelbruck, Weather by CustomWeather, © 2016

Note: Actual official high and low records may vary slightly from our data, if they occured in-between our weather recording intervals... More about our weather records

Advertising

Ettelbruck Weather History for the Previous 24 Hours

Scroll right to see more
 ConditionsComfort  
Time TempWeatherWind HumidityBarometerVisibility
4:00 AM
Fri, Aug 26
72 °FClear.1 mph63%29.98 "Hg28 mi
3:00 AM72 °FClear.N/A66%29.98 "Hg31 mi
2:00 AM74 °FClear.2 mph61%29.98 "Hg31 mi
1:00 AM75 °FClear.2 mph62%29.98 "Hg28 mi
12:00 AM77 °FClear.2 mph58%29.98 "Hg31 mi
11:00 PM
Thu, Aug 25
79 °FClear.2 mph54%29.97 "Hg28 mi
10:00 PM80 °FClear.2 mph50%29.97 "Hg31 mi
9:00 PM82 °FClear.2 mph46%29.96 "Hg31 mi
8:00 PM86 °FSunny.1 mph38%29.94 "Hg25 mi
7:00 PM88 °FSunny.2 mph33%29.94 "Hg22 mi
6:00 PM89 °FSunny.3 mph30%29.95 "Hg28 mi
5:00 PM89 °FSunny.2 mph29%29.96 "Hg22 mi
4:00 PM87 °FSunny.1 mph35%29.98 "Hg22 mi
3:00 PM85 °FSunny.3 mph38%29.99 "Hg31 mi
2:00 PM83 °FSunny.2 mph42%30.00 "Hg22 mi
1:00 PM81 °FSunny.2 mph48%30.02 "Hg19 mi
12:00 PM78 °FSunny.3 mph51%30.03 "Hg19 mi
11:00 AM75 °FSunny.3 mph58%30.05 "Hg19 mi
10:00 AM72 °FSunny.3 mph60%30.05 "Hg19 mi
9:00 AM71 °FSunny.3 mph64%30.06 "Hg25 mi
8:00 AM65 °FSunny.5 mph78%30.06 "Hg19 mi
7:00 AM64 °FSunny.5 mph79%30.06 "Hg31 mi
6:00 AM67 °FClear.5 mph71%30.06 "Hg28 mi
5:00 AM66 °FClear.2 mph75%30.08 "Hg31 mi
Weather by CustomWeather, © 2016

See weather overviewHow to use our weather pages